Wetbulb
39.77 33.54 27.06 30.88 34.24 33.99 32.20 30.22 27.60 31.64 36.35 35.36 34.87 35.58 35.22 37.26 38.26 38.58 39.36 39.15 40.45 41.41 44.56 46.48 47.86 49.07 49.31 49.70 50.64 51.14 51.50 56.53 60.32 61.79 61.56 61.65 60.83 60.90 60.48 60.55 60.20 59.40 59.62 58.79
33.73 31.34 35.52 36.65 35.77 34.66 32.41 27.85 26.80 31.92 35.93 36.63 34.93 32.46 34.82 35.76 37.52 38.84 38.85 39.39 40.16 41.73 43.42 45.00 46.01 47.61 47.75 48.56 49.12 49.75 50.80 53.53 57.69 61.31 61.84 62.09 61.54 60.88 60.52 60.09 59.75 60.00 59.55 59.20
30.82 33.45 36.83 34.71 33.01 32.21 28.96 25.25 23.80 29.28 33.69 35.80 32.09 26.62 30.73 34.06 36.96 38.98 39.65 40.49 40.41 40.88 41.75 42.84 43.73 44.78 45.85 46.33 47.70 48.25 49.79 51.34 53.58 57.20 61.29 60.25 60.77 60.75 59.84 59.48 59.28 59.53 59.63 59.67
32.02 35.14 33.70 31.89 31.82 32.09 27.98 33.50 32.19 31.39 30.08 22.19 32.41 17.95 21.41 29.49 33.47 36.71 38.45 38.92 39.27 39.78 41.07 41.59 41.83 42.46 43.92 44.90 47.19 47.99 48.82 49.47 51.25 52.91 60.20 57.79 56.86 58.32 59.30 59.69 60.31 60.31 60.64 60.26
29.42 31.35 30.78 30.75 32.38 33.16 29.91 35.59 32.08 30.67 29.60 28.94 24.89 26.39 21.10 29.70 28.07 32.54 36.16 38.49 38.90 39.81 40.14 40.27 40.71 41.32 43.09 44.16 45.21 46.54 47.98 48.33 49.20 51.00 55.63 57.42 56.30 58.88 58.89 59.22 58.05 57.77 57.99 58.54
32.81 35.95 33.54 32.54 34.36 34.03 34.83 32.22 32.20 30.79 30.39 17.29 19.48 20.55 19.06 22.51 28.28 31.54 34.53 36.06 37.72 38.69 38.75 39.47 40.58 41.18 40.99 42.26 43.56 45.12 46.28 47.08 47.96 49.10 50.65 51.49 51.70 52.86 53.65 53.73 52.88 53.14 53.86 54.05
30.08 31.22 34.19 35.09 30.19 33.26 32.99 27.32 15.63 13.45 14.82 17.56 25.26 21.72 22.68 27.85 32.25 33.12 33.69 32.86 35.13 37.46 37.34 37.78 38.04 38.69 39.59 40.04 41.10 43.37 44.40 44.98 46.88 47.63 48.57 49.44 49.67 49.65 49.44 49.83 49.99 49.91 50.17 51.01
24.39 22.03 31.46 34.23 30.62 28.44 29.61 28.36 18.54 11.67 15.74 18.73 26.60 20.08 24.45 32.37 32.93 34.54 32.04 31.96 33.59 34.14 35.83 36.67 37.29 37.65 38.19 38.98 39.90 41.20 42.56 43.28 45.09 46.06 47.13 48.32 48.82 48.75 49.00 48.95 49.00 49.04 49.01 49.33
25.24 25.64 32.77 33.45 33.36 32.15 28.35 25.65 29.81 25.25 19.70 20.91 22.25 26.29 30.84 33.20 31.20 29.30 29.24 30.63 30.43 32.22 33.45 34.66 36.56 37.25 37.22 37.77 38.53 39.80 41.08 41.95 42.89 44.32 45.49 46.09 47.11 47.49 47.28 47.56 48.03 47.76 48.28 48.91
30.18 24.30 29.87 31.98 33.91 33.31 30.53 32.57 24.41 22.80 11.00 12.19 20.20 22.91 23.85 29.30 29.47 29.12 27.68 27.32 28.87 30.86 32.39 33.43 35.15 35.83 36.45 37.03 37.87 38.71 40.12 40.44 41.33 42.23 43.50 44.14 44.35 45.20 46.06 46.15 45.62 45.86 46.23 46.70
31.78 27.35 25.75 30.08 28.50 27.56 29.37 27.86 28.50 26.83 24.99 20.22 17.71 20.67 28.18 30.27 31.22 28.30 28.13 29.91 28.76 29.65 31.14 32.36 33.52 34.73 35.30 36.01 36.40 37.01 37.85 38.66 39.36 40.69 41.44 41.89 42.00 42.25 42.40 42.14 42.45 42.79 43.45 44.04
32.52 28.68 21.90 25.15 28.87 30.87 29.87 27.24 28.19 21.95 20.07 23.11 23.78 21.70 31.43 31.91 31.17 29.28 28.80 30.45 30.15 30.11 30.99 31.50 32.41 32.98 33.24 33.59 35.15 35.49 36.33 37.24 37.63 38.71 39.89 40.35 40.65 40.55 40.21 39.72 39.98 41.00 40.81 41.47
32.37 20.18 11.63 19.16 25.61 29.20 28.39 30.21 30.38 28.91 27.16 22.98 19.16 20.72 30.43 29.14 28.15 28.83 28.49 29.10 30.43 30.26 29.41 31.06 31.60 31.55 31.68 32.13 32.83 33.76 35.05 35.51 36.46 37.41 37.95 38.50 39.04 39.39 38.62 38.10 37.95 38.39 38.96 39.24
35.75 25.83 21.97 18.65 23.23 26.29 25.93 27.61 30.00 28.67 21.19 23.19 23.80 22.83 27.45 27.36 27.36 27.59 28.13 29.19 29.10 29.87 30.98 30.58 30.29 30.65 31.32 31.84 31.62 32.38 33.37 34.48 35.34 36.13 36.27 36.34 36.74 37.66 38.09 37.80 37.01 36.84 36.96 36.92
31.83 19.30 23.26 26.36 27.53 27.72 27.47 27.12 27.68 27.18 27.64 23.87 22.90 24.80 28.11 29.88 28.72 28.47 28.55 29.16 29.23 29.84 30.26 30.17 30.41 30.21 30.33 30.49 31.34 32.03 32.60 33.00 33.64 34.12 34.64 34.92 35.97 36.65 37.16 36.97 36.73 36.15 35.77 35.36
30.48 17.31 21.62 17.42 24.16 24.74 22.87 26.45 27.28 27.95 28.35 27.61 28.59 27.89 31.38 30.91 27.96 26.83 28.97 29.26 28.99 29.63 30.17 30.73 30.82 31.32 31.23 30.93 30.85 31.96 32.09 31.95 32.39 32.16 32.22 33.17 34.01 34.61 34.96 35.58 35.66 35.71 34.95 34.71
28.13 19.69 13.39 10.81 17.87 15.73 15.79 22.06 24.27 26.16 26.95 28.89 24.73 29.47 30.91 29.60 29.82 29.31 29.40 30.16 29.97 29.97 30.34 30.67 30.97 31.14 31.24 31.00 31.59 30.90 31.33 31.82 31.22 30.94 30.94 31.20 31.70 32.00 32.46 33.35 34.01 33.84 33.85 33.75
22.58 16.43 9.47 9.62 9.63 8.98 24.79 23.15 23.61 25.34 27.40 29.62 29.69 28.86 31.45 33.03 32.88 33.15 31.89 31.63 30.11 30.54 30.74 30.88 30.95 31.01 31.33 30.91 30.77 31.40 31.24 30.74 30.45 29.93 29.86 29.97 30.06 30.11 30.55 30.92 31.54 31.90 31.95 32.12
28.10 23.82 7.43 9.91 1.75 17.54 23.57 22.30 22.65 22.84 24.26 28.20 29.72 31.96 30.84 30.06 28.61 28.90 31.37 32.51 32.61 31.88 31.73 31.71 31.61 31.24 30.67 30.22 30.37 30.55 29.74 29.63 29.69 29.36 29.21 29.20 29.37 29.57 29.28 29.29 29.50 29.99 30.03 30.06
26.55 24.94 17.78 0.11 5.32 7.31 24.01 23.88 26.07 25.94 19.90 26.67 30.27 30.93 30.05 28.50 25.99 30.13 30.55 31.37 31.10 31.91 32.09 31.95 31.39 31.17 30.24 30.11 30.37 29.93 29.27 28.99 28.67 28.77 28.72 28.67 28.82 28.57 28.50 28.39 28.40 28.91 28.24 29.84
23.06 21.91 13.40 0.73 3.86 13.67 24.82 25.78 26.91 17.84 25.30 25.71 28.30 29.73 29.97 28.91 32.07 32.34 32.02 30.55 31.94 32.07 32.03 31.67 30.80 30.57 30.06 30.30 30.10 29.50 28.76 28.65 28.83 28.67 28.25 27.54 27.52 28.28 27.98 27.91 28.10 28.20 28.46 28.92
21.59 19.21 16.27 13.68 7.91 12.52 25.93 25.19 23.44 27.66 27.00 27.41 27.76 30.72 32.04 30.12 30.13 30.18 31.82 30.41 31.00 31.22 31.19 30.83 29.88 29.37 29.28 29.60 29.56 28.86 28.15 28.46 27.06 26.13 25.58 23.47 22.60 26.07 27.44 25.07 25.84 26.17 27.74 27.30
20.49 23.29 18.84 21.04 22.48 28.09 27.45 27.24 28.81 28.39 28.21 28.12 29.80 30.66 32.29 30.50 29.60 29.70 29.41 30.54 31.30 30.95 31.00 29.98 29.49 28.80 28.67 28.84 28.63 27.40 27.35 26.42 22.79 18.53 17.45 18.19 19.68 23.65 24.43 25.10 25.15 24.42 24.60 24.35
22.59 25.67 22.13 23.20 28.30 27.32 28.09 28.43 27.80 29.00 29.09 29.10 30.33 31.27 30.88 30.18 29.89 29.08 29.55 30.24 30.32 30.27 30.33 29.18 28.12 27.80 27.89 27.31 26.44 25.89 25.55 22.20 15.52 15.16 16.37 18.00 19.54 21.10 20.72 23.31 25.08 23.21 22.60 23.13
23.55 26.53 23.28 22.67 27.45 26.70 28.90 29.83 30.71 30.41 28.95 29.39 29.81 30.76 31.22 30.65 29.65 29.42 29.58 30.14 30.90 30.22 28.57 28.49 28.01 27.37 26.70 23.56 21.21 17.69 18.46 14.98 15.92 15.56 16.83 17.35 18.12 17.53 19.45 21.33 21.37 23.32 23.23 26.53
25.11 24.98 25.23 24.84 29.63 30.86 31.68 31.21 31.91 30.32 29.17 30.29 28.87 29.05 29.95 30.60 30.52 29.32 29.38 30.83 30.11 28.41 26.34 25.73 25.02 24.50 24.13 21.35 18.15 12.84 8.77 11.93 13.95 17.07 16.88 16.44 17.08 16.27 18.31 19.01 19.92 27.69 30.13 30.96
MSLP
1019.43 1019.83 1020.37 1020.69 1020.82 1021.17 1021.67 1022.09 1022.16 1021.38 1020.82 1020.77 1020.82 1020.72 1021.00 1020.97 1020.96 1020.83 1020.69 1020.40 1019.83 1019.08 1018.06 1017.09 1015.99 1015.20 1014.52 1013.69 1012.82 1011.84 1010.76 1009.63 1009.18 1009.01 1009.17 1009.47 1009.95 1010.05 1010.75 1011.35 1011.64 1011.74 1012.04 1012.69
1019.96 1019.88 1019.91 1020.17 1020.56 1021.11 1021.63 1022.09 1022.13 1021.56 1021.07 1021.22 1021.09 1021.15 1021.50 1021.36 1021.22 1021.25 1021.08 1020.68 1020.14 1019.19 1018.18 1017.31 1016.37 1015.61 1015.05 1014.08 1012.96 1011.99 1010.84 1009.86 1009.06 1008.39 1008.60 1009.11 1008.87 1008.16 1009.91 1010.59 1010.97 1011.42 1011.46 1012.04
1020.06 1019.86 1019.69 1020.02 1020.34 1020.92 1021.62 1022.00 1022.23 1022.04 1021.41 1021.64 1021.38 1021.68 1021.98 1021.63 1021.44 1021.59 1021.44 1021.22 1020.58 1019.83 1018.91 1017.94 1017.04 1016.44 1015.61 1014.48 1013.25 1012.33 1010.99 1010.21 1009.51 1008.55 1008.28 1008.83 1008.89 1009.17 1009.67 1010.23 1010.70 1011.10 1011.02 1011.85
1020.04 1019.75 1019.74 1019.96 1020.25 1020.69 1021.12 1021.21 1021.70 1021.95 1022.20 1022.69 1022.21 1023.33 1022.77 1022.31 1021.80 1021.69 1021.62 1021.44 1020.94 1020.31 1019.46 1018.50 1017.84 1017.11 1016.13 1014.90 1013.59 1012.36 1011.22 1010.42 1009.59 1009.17 1008.16 1008.32 1008.49 1008.68 1009.15 1009.72 1010.72 1010.97 1011.65 1012.05
1019.98 1019.81 1019.86 1019.97 1019.93 1020.29 1020.64 1020.89 1021.36 1021.77 1022.40 1022.70 1023.50 1024.18 1022.95 1022.96 1022.38 1022.14 1021.96 1021.66 1021.37 1020.81 1020.14 1019.28 1018.69 1018.08 1017.00 1015.60 1014.37 1013.22 1012.07 1010.93 1009.83 1009.12 1007.74 1008.94 1009.43 1009.90 1009.32 1009.76 1010.92 1011.75 1012.15 1012.48
1020.10 1019.83 1019.85 1019.75 1019.82 1020.13 1020.48 1020.99 1021.48 1022.04 1022.52 1023.26 1023.89 1024.52 1023.50 1023.13 1022.76 1022.30 1021.99 1021.75 1021.51 1021.18 1020.53 1019.71 1019.23 1018.59 1017.71 1016.45 1015.14 1013.89 1012.87 1011.74 1010.38 1009.58 1009.80 1009.70 1010.16 1010.43 1010.29 1010.49 1011.57 1012.53 1012.62 1013.09
1020.51 1020.16 1019.82 1019.77 1019.92 1020.19 1020.66 1021.55 1022.51 1023.23 1023.56 1023.83 1023.53 1024.16 1022.76 1022.15 1022.27 1022.26 1022.13 1022.03 1021.66 1021.32 1020.87 1020.29 1019.65 1019.14 1018.35 1017.50 1016.43 1015.04 1013.88 1012.92 1012.29 1011.94 1012.16 1011.89 1011.02 1011.39 1011.30 1011.60 1012.81 1013.44 1013.76 1014.34
1021.07 1020.62 1020.10 1019.97 1020.25 1020.65 1021.17 1021.92 1023.32 1024.08 1024.24 1024.07 1023.46 1022.95 1021.65 1021.44 1021.77 1021.67 1021.96 1022.21 1021.98 1021.58 1021.30 1020.87 1020.15 1019.56 1019.02 1018.29 1017.43 1016.37 1015.37 1014.48 1013.72 1013.46 1013.59 1013.12 1012.39 1012.35 1013.70 1013.26 1014.12 1014.70 1014.77 1015.07
1021.27 1020.78 1020.30 1020.20 1020.35 1020.86 1021.37 1022.03 1022.79 1023.82 1024.64 1024.30 1023.10 1022.26 1020.85 1021.05 1021.66 1021.74 1021.97 1022.10 1022.21 1021.87 1021.49 1021.32 1020.76 1019.89 1019.27 1018.85 1018.42 1017.91 1017.10 1016.52 1016.31 1015.91 1015.50 1014.80 1014.42 1014.55 1015.27 1014.96 1014.56 1015.04 1016.04 1016.40
1021.23 1021.33 1020.95 1020.66 1020.63 1021.04 1021.21 1021.94 1022.82 1023.84 1024.94 1024.26 1022.93 1022.03 1020.93 1020.79 1021.13 1021.62 1021.91 1022.08 1022.23 1022.19 1021.96 1021.64 1020.98 1020.45 1019.94 1019.54 1018.98 1018.94 1018.37 1017.97 1017.69 1017.45 1016.89 1016.16 1016.18 1016.24 1016.61 1016.50 1016.56 1016.76 1017.14 1017.34
1021.32 1021.82 1021.95 1021.49 1021.33 1021.43 1021.92 1021.97 1022.62 1023.31 1023.99 1024.26 1023.47 1021.43 1019.85 1019.94 1020.62 1021.42 1021.74 1022.03 1022.15 1022.46 1022.34 1022.17 1021.75 1021.12 1020.87 1020.59 1020.13 1019.40 1018.88 1018.67 1018.38 1018.09 1017.80 1017.47 1017.50 1017.79 1017.73 1017.28 1017.71 1018.17 1018.19 1018.39
1021.69 1022.33 1022.61 1022.35 1022.05 1021.91 1022.06 1022.52 1022.61 1023.18 1023.38 1023.67 1023.37 1021.02 1019.56 1019.70 1020.49 1021.13 1021.88 1022.06 1022.31 1022.34 1022.46 1022.44 1022.02 1021.62 1021.12 1020.88 1020.44 1020.45 1020.16 1019.66 1019.50 1019.04 1018.27 1018.27 1018.22 1018.12 1018.45 1018.62 1018.62 1018.71 1019.05 1019.01
1021.88 1023.14 1023.52 1023.27 1023.26 1022.63 1022.28 1022.12 1022.59 1022.77 1023.10 1022.99 1022.98 1020.59 1019.99 1019.76 1020.68 1021.23 1021.70 1021.93 1022.15 1022.48 1022.71 1022.59 1022.39 1022.16 1021.86 1021.54 1021.16 1020.97 1020.58 1020.39 1019.82 1019.44 1019.27 1019.43 1019.42 1019.16 1019.55 1019.65 1019.48 1019.62 1019.64 1019.82
1021.82 1023.23 1023.67 1023.46 1023.04 1022.89 1022.69 1022.20 1022.43 1022.72 1023.18 1022.28 1020.84 1020.05 1020.06 1020.37 1020.39 1020.96 1021.47 1021.82 1021.96 1022.02 1022.48 1022.85 1022.97 1022.74 1022.44 1022.10 1021.81 1021.61 1021.35 1020.97 1020.68 1020.31 1020.23 1020.21 1020.35 1020.52 1020.48 1020.43 1020.38 1020.53 1020.24 1020.43
1022.63 1023.96 1024.37 1024.13 1023.92 1023.41 1022.90 1022.23 1022.02 1022.03 1021.59 1021.47 1019.81 1019.42 1019.17 1019.34 1019.67 1019.98 1020.68 1021.44 1022.08 1022.21 1022.41 1022.57 1022.90 1022.91 1022.82 1022.74 1022.35 1022.13 1022.05 1021.74 1021.51 1021.46 1021.37 1021.42 1021.29 1020.97 1020.98 1021.16 1021.06 1021.04 1020.97 1021.15
1023.36 1024.73 1025.59 1025.47 1024.72 1024.10 1023.11 1021.85 1021.37 1020.92 1020.80 1020.15 1019.70 1018.38 1018.32 1018.55 1019.25 1019.96 1020.26 1020.75 1021.49 1021.77 1021.99 1021.98 1022.21 1022.75 1022.95 1022.86 1022.95 1022.65 1022.22 1022.16 1021.73 1021.94 1021.97 1021.84 1021.75 1021.72 1021.84 1021.72 1021.85 1021.71 1021.73 1021.54
1023.88 1025.33 1026.88 1026.85 1025.95 1024.60 1022.66 1019.46 1019.42 1019.16 1018.77 1018.69 1018.87 1016.51 1017.30 1018.18 1018.51 1018.85 1019.56 1019.91 1020.43 1021.14 1021.44 1021.89 1022.14 1022.21 1022.42 1022.71 1022.72 1023.04 1022.79 1022.62 1022.52 1022.57 1022.77 1022.45 1022.58 1022.43 1022.53 1022.33 1022.25 1022.29 1022.18 1022.26
1023.86 1025.70 1027.19 1028.15 1027.06 1024.45 1019.36 1018.50 1017.92 1018.25 1017.50 1017.25 1016.58 1016.21 1016.53 1016.74 1016.97 1017.21 1017.97 1018.77 1019.71 1020.38 1020.91 1021.47 1021.80 1022.16 1022.38 1022.61 1022.80 1023.09 1023.04 1022.98 1023.30 1023.42 1023.13 1023.07 1023.04 1023.26 1023.04 1022.87 1022.77 1022.51 1022.51 1022.60
1023.19 1024.96 1027.62 1028.92 1027.70 1022.97 1018.27 1018.29 1017.91 1017.69 1015.93 1015.32 1015.45 1015.40 1015.82 1016.72 1017.19 1017.18 1017.13 1017.79 1018.51 1019.38 1020.19 1020.84 1021.37 1021.99 1022.30 1022.69 1022.84 1022.98 1023.17 1023.26 1023.46 1023.87 1023.86 1023.77 1023.71 1023.76 1023.64 1023.78 1023.38 1022.94 1023.15 1023.23
1023.80 1024.22 1026.16 1028.91 1027.36 1023.63 1018.84 1017.32 1016.88 1017.04 1015.84 1013.83 1014.33 1014.68 1015.58 1016.55 1017.32 1016.33 1016.69 1017.26 1018.25 1019.07 1019.85 1020.62 1021.25 1021.87 1022.33 1022.74 1022.96 1023.04 1023.37 1023.54 1023.73 1023.91 1023.90 1023.84 1023.99 1024.06 1023.78 1023.64 1023.32 1023.63 1023.91 1023.39
1023.88 1025.06 1025.60 1027.02 1025.86 1022.01 1017.61 1016.94 1016.73 1016.69 1014.70 1013.88 1013.96 1014.46 1015.48 1015.99 1015.33 1015.34 1016.18 1017.07 1017.78 1018.85 1019.78 1020.59 1021.19 1021.64 1022.11 1022.51 1022.94 1023.35 1023.58 1023.85 1023.89 1023.92 1023.98 1024.11 1024.03 1023.77 1023.79 1023.72 1023.69 1023.71 1023.51 1023.26
1021.15 1022.81 1024.01 1025.02 1024.54 1020.38 1015.91 1016.75 1015.69 1013.69 1013.48 1013.48 1013.94 1014.14 1014.62 1015.21 1015.45 1015.59 1016.01 1016.98 1017.73 1018.72 1019.76 1020.55 1021.21 1021.89 1022.22 1022.48 1022.88 1023.32 1023.63 1023.80 1023.91 1024.01 1024.09 1024.11 1024.09 1023.97 1023.76 1023.75 1023.75 1023.69 1023.42 1023.16
1019.28 1018.02 1019.20 1019.47 1017.72 1014.91 1014.15 1013.27 1012.89 1012.90 1013.26 1013.39 1013.71 1014.19 1014.49 1015.02 1015.51 1015.80 1016.35 1017.05 1017.84 1018.42 1019.36 1020.16 1020.85 1021.79 1022.20 1022.66 1022.82 1023.31 1023.44 1023.76 1024.00 1024.34 1024.52 1024.34 1024.30 1024.08 1023.89 1023.91 1023.96 1023.90 1023.72 1023.51
1017.38 1016.74 1016.76 1017.02 1013.90 1013.96 1013.63 1012.86 1012.88 1012.82 1013.04 1012.86 1013.39 1013.98 1014.42 1014.62 1015.18 1015.98 1016.41 1017.05 1017.81 1018.54 1019.18 1019.84 1020.76 1021.48 1022.15 1022.37 1022.91 1023.08 1023.38 1023.72 1024.23 1024.69 1024.75 1024.62 1024.51 1024.49 1024.38 1024.23 1024.19 1024.17 1023.96 1023.46
1014.75 1015.08 1015.15 1014.64 1012.62 1012.93 1012.56 1011.68 1011.55 1012.14 1012.78 1012.92 1013.18 1013.74 1014.21 1014.61 1015.09 1015.49 1016.18 1016.89 1017.38 1018.15 1018.98 1019.57 1020.13 1020.61 1021.43 1022.17 1022.76 1023.07 1023.55 1023.89 1024.47 1024.65 1024.78 1024.77 1024.78 1024.93 1024.85 1024.54 1024.13 1023.78 1023.42 1023.23
1012.90 1012.37 1012.61 1010.84 1009.52 1009.92 1009.57 1009.38 1010.25 1011.34 1011.91 1012.23 1012.87 1013.47 1014.06 1014.44 1014.86 1015.47 1015.97 1016.17 1016.85 1017.84 1018.60 1019.56 1019.98 1020.38 1020.83 1021.95 1022.97 1023.46 1023.69 1023.94 1024.50 1024.70 1025.04 1025.28 1025.39 1025.27 1024.84 1024.14 1023.88 1023.57 1023.12 1023.13
Wind_Speed
3 5 2 2 1 3 2 1 3 4 3 3 3 1 5 7 11 13 14 13 12 15 14 15 15 13 12 11 12 11 9 10 6 8 9 9 11 9 8 8 12 11 10 10
5 1 3 1 3 3 3 1 4 5 4 3 3 5 3 5 6 12 12 12 12 15 15 17 18 16 14 12 12 12 11 7 5 6 8 8 9 9 11 9 10 10 10 10
2 1 2 0 2 1 2 4 2 5 5 2 5 3 4 3 5 12 11 11 13 14 15 18 19 18 16 15 13 12 11 8 5 8 7 2 1 6 6 8 6 6 5 6
3 1 1 1 2 3 3 5 4 3 3 2 4 5 5 5 5 10 12 13 13 15 15 16 20 20 19 17 15 14 12 11 10 7 6 9 7 5 4 5 4 5 6 5
1 2 0 2 2 2 6 5 3 2 3 1 5 1 8 5 6 8 10 11 11 12 14 16 16 18 17 17 15 13 12 14 16 15 9 2 5 2 3 6 9 7 6 6
4 2 2 3 1 3 3 2 4 1 0 3 2 5 7 2 4 6 6 7 8 11 12 12 12 14 16 17 17 15 15 15 20 20 16 14 12 7 8 9 9 7 7 7
2 1 2 2 2 1 5 5 4 6 5 5 4 2 9 4 2 2 7 7 7 6 9 11 12 12 14 16 17 15 17 19 18 20 17 13 18 17 14 14 10 11 9 8
3 4 4 1 1 1 2 4 5 5 2 5 2 5 6 4 5 2 2 4 6 6 7 10 11 9 10 12 15 15 17 18 20 19 16 15 17 13 10 14 11 9 9 9
3 3 0 1 2 3 1 2 1 3 3 1 3 5 6 5 5 1 2 4 5 6 7 6 7 10 11 11 12 11 13 15 14 13 11 13 14 15 9 13 11 10 9 8
3 1 0 0 2 2 2 4 3 3 2 5 5 5 6 6 8 6 4 2 2 4 6 6 6 8 9 10 10 10 9 10 9 9 9 11 12 12 9 10 11 10 8 8
3 2 2 1 3 5 1 1 2 3 4 3 3 7 6 8 8 9 7 5 1 3 3 4 5 5 4 5 6 9 11 11 10 8 8 10 10 9 9 11 10 8 8 7
2 3 3 5 1 1 1 3 4 4 4 3 1 9 2 7 7 8 7 6 4 2 1 3 5 5 7 8 9 8 7 9 7 7 10 11 10 11 11 10 10 9 10 9
6 1 3 8 6 3 3 5 4 3 2 6 5 7 1 3 4 6 8 6 5 5 3 2 4 5 6 6 7 7 8 8 8 8 9 10 10 10 9 8 8 7 7 7
5 3 6 6 3 3 4 5 6 5 3 4 8 4 5 7 8 7 8 8 6 5 4 3 2 3 4 5 6 6 7 7 7 9 9 9 8 7 6 6 7 6 7 7
4 4 2 4 6 3 5 6 8 12 8 8 4 9 7 11 14 12 8 7 7 7 7 5 3 2 2 4 5 5 5 6 6 8 9 8 6 7 7 7 6 6 7 6
2 1 3 5 3 3 7 13 15 16 14 15 14 22 8 4 6 8 10 9 9 8 8 6 4 5 4 4 3 3 6 6 6 7 7 6 7 7 6 6 6 6 6 6
7 6 3 6 5 6 10 15 20 9 7 18 18 13 6 5 9 12 13 12 10 9 9 8 8 6 4 4 4 5 4 4 6 7 6 7 6 7 6 5 6 6 6 5
7 6 3 4 4 3 7 3 3 15 12 17 14 7 8 10 11 9 10 16 10 9 9 8 7 5 4 3 4 4 4 6 6 5 6 6 6 6 5 5 5 5 4 5
3 6 3 4 4 10 4 4 7 8 8 18 23 19 7 3 4 6 10 11 15 12 8 7 7 6 5 4 5 6 5 6 6 4 3 3 3 3 3 3 4 5 5 4
5 5 6 3 5 8 5 3 5 2 9 7 17 14 10 8 5 8 13 10 9 10 8 8 8 6 7 5 5 6 6 5 4 2 1 1 1 1 3 3 3 1 2 3
6 2 6 3 3 12 11 5 5 7 8 2 6 7 10 9 6 4 11 8 9 9 10 8 7 8 7 7 7 6 6 5 4 3 2 2 1 1 2 2 1 2 2 3
11 11 6 5 2 14 10 6 10 7 1 2 3 6 12 5 6 7 13 11 13 12 9 9 8 7 6 7 7 6 6 5 4 3 3 2 1 1 1 1 1 1 4 5
7 11 11 14 12 4 12 5 8 4 4 4 3 5 8 8 7 8 9 12 13 13 11 7 9 8 6 6 6 7 6 6 4 3 2 2 1 1 4 4 4 3 3 2
5 5 4 5 10 16 10 7 6 7 6 3 4 5 8 8 9 8 8 10 11 11 11 8 9 9 8 7 6 5 7 6 5 4 3 2 3 4 3 2 0 1 1 1
6 14 8 7 10 5 13 15 11 13 7 6 4 6 8 8 8 8 10 11 12 12 8 9 11 10 9 7 6 4 4 5 4 4 3 2 2 1 1 1 0 1 1 3
7 9 10 13 8 8 6 11 15 13 14 15 10 6 5 9 10 8 9 12 12 11 8 8 8 7 8 7 5 4 4 4 5 4 2 0 0 1 1 3 3 6 9 9
Wind_Direction
3 70 112 208 166 147 157 214 266 261 264 298 284 42 3 349 0 346 345 341 332 333 327 340 338 345 332 328 325 329 316 311 214 210 213 201 201 177 186 197 195 182 179 179
17 102 211 195 192 188 206 141 288 288 265 241 355 327 307 360 353 356 347 346 352 334 350 349 350 346 341 339 342 337 333 309 303 218 225 218 200 176 185 184 184 185 178 183
167 189 162 91 296 78 209 169 215 227 306 67 314 15 333 351 355 13 7 357 351 349 357 355 353 346 342 343 344 339 351 346 303 302 214 233 126 162 190 170 174 178 190 191
230 335 155 321 250 125 302 192 172 261 342 313 7 292 306 329 332 17 7 2 352 351 355 3 355 347 344 344 345 350 359 12 2 335 212 171 204 213 198 156 150 105 102 90
246 172 257 287 230 149 235 165 238 223 257 81 352 3 267 333 330 336 358 354 356 356 358 4 360 348 344 347 350 353 4 24 30 24 52 9 79 167 195 102 101 102 89 87
245 321 200 228 266 192 295 305 33 353 255 35 235 115 285 285 261 310 307 332 347 348 347 356 351 355 352 349 352 2 15 24 37 30 28 69 63 58 77 86 80 62 66 70
351 229 262 212 3 114 46 50 343 355 7 221 149 79 245 242 289 250 303 337 344 338 345 352 351 355 356 354 353 360 15 28 35 40 37 48 71 73 63 71 69 66 53 43
172 315 188 179 120 163 42 119 147 254 270 278 142 228 257 182 93 168 323 350 353 350 4 358 352 357 359 358 358 2 14 23 29 35 25 42 50 59 52 65 68 71 63 48
154 278 67 94 107 119 107 95 173 89 331 329 259 287 300 165 140 126 322 6 3 359 359 355 353 349 2 6 6 3 21 23 23 36 34 40 42 54 54 62 59 58 50 53
187 305 238 157 106 84 141 158 54 17 3 296 284 264 242 222 200 173 220 273 2 13 10 356 356 2 358 353 4 10 30 39 25 22 30 52 48 44 39 56 59 60 57 55
134 133 267 149 194 181 81 95 106 135 156 234 303 266 211 220 183 173 197 199 178 72 5 5 359 5 359 1 12 21 26 33 30 33 45 51 53 55 51 53 47 47 54 53
152 142 223 215 326 311 145 234 164 142 220 234 247 270 310 214 180 156 185 184 160 142 70 11 7 4 22 16 24 24 27 35 27 23 45 41 44 47 46 44 48 48 47 40
171 324 10 349 0 1 207 191 205 113 75 211 152 261 48 127 186 179 165 197 178 167 138 45 31 28 22 18 18 15 27 24 25 42 52 45 42 50 46 46 45 45 58 51
111 138 187 191 174 144 211 203 196 170 155 212 229 249 244 208 212 206 189 179 191 191 166 151 102 62 32 17 25 24 27 25 23 38 45 50 42 45 49 45 48 48 49 50
129 192 172 256 239 224 238 219 206 208 208 201 242 224 224 219 204 203 191 171 173 188 187 185 160 111 75 58 28 38 33 46 34 46 49 43 40 41 43 38 42 43 48 47
143 213 85 300 353 250 260 239 231 230 226 254 259 270 211 249 130 163 198 187 184 183 188 191 171 165 138 101 88 55 53 34 59 49 48 40 39 39 38 44 45 45 45 40
146 131 93 265 349 329 298 238 213 212 199 217 230 241 144 193 199 196 197 196 196 181 180 181 184 179 153 138 112 81 84 63 52 56 39 44 38 44 29 33 44 40 35 26
132 106 86 245 8 309 235 187 170 218 240 218 246 211 190 201 216 209 189 187 189 185 184 176 171 169 170 153 110 120 97 90 84 64 47 35 34 31 18 25 31 32 20 18
129 124 92 148 199 298 290 181 173 177 271 213 226 235 194 161 93 254 186 183 184 180 177 180 164 162 150 165 148 125 100 96 85 79 75 64 45 17 5 14 18 26 9 345
100 71 120 103 160 222 250 159 177 150 289 224 214 227 173 138 200 237 183 169 158 161 159 166 162 147 149 169 150 131 132 123 120 135 108 64 29 340 14 0 12 342 273 291
132 113 168 178 235 283 237 160 139 90 241 206 198 191 156 193 210 179 156 149 156 160 163 155 159 165 176 159 154 153 150 160 176 167 143 128 85 30 1 334 237 264 306 294
160 154 182 124 157 265 152 90 172 208 202 199 199 195 191 167 150 152 166 153 151 158 158 163 154 173 175 169 159 168 172 172 156 149 141 103 34 349 34 78 346 337 6 358
200 180 175 185 211 235 204 181 210 155 189 197 194 210 192 170 184 165 164 159 167 163 165 167 161 163 178 189 180 172 181 169 140 119 95 49 12 29 27 25 24 10 345 308
242 162 177 111 235 230 229 242 233 198 211 207 202 187 180 183 171 179 159 164 166 166 171 163 159 169 189 189 190 193 166 153 137 141 112 68 54 22 8 6 30 227 284 356
188 146 167 266 264 320 250 227 220 216 209 226 187 177 209 180 187 173 171 175 178 174 165 169 177 176 193 179 177 167 154 143 138 121 82 55 68 53 323 271 132 16 286 56
192 171 175 217 188 188 235 207 201 199 201 216 189 202 203 190 190 169 185 183 172 175 162 176 187 180 180 169 170 173 179 158 144 108 108 127 356 5 17 33 6 19 37 23